Location: *
(48.8667°N, 2.3331°E)
Time: 00:32:04
(UTC+00:00)

Cosmos 192 - Pass Details

Date: 09 April 2020
Orbit: 700 x 714 km, 74.0° (Epoch: 30 May)

Event Time Altitude Azimuth Distance (km) Brightness Sun altitude
Rises 20:33:50 0° 335° (NNW) 3,119 8.8 -18.5°
Reaches altitude 10° 20:36:11 10° 334° (NNW) 2,197 7.8 -18.8°
Maximum altitude 20:41:07 74° 250° (WSW) 744 4.4 -19.5°
Enters shadow 20:43:22 33° 172° (S) 1,200 5.1 -19.8°
